Weather History for Milwaukee, WI

Change the Weather History Date:

Wednesday, February 20, 2013

  Actual Average Record
Temperature  
Mean Temperature 15 °F 27 °F  
Max Temperature 22 °F 34 °F 60 °F (1930)
Min Temperature 7 °F 21 °F -9 °F (1959)
Degree Days  
Heating Degree Days 50 38  
Month to date heating degree days 852 803  
Since 1 July heating degree days 4437 4688  
Cooling Degree Days 0 0  
Month to date cooling degree days 0 0  
Year to date cooling degree days 0 0  
Moisture  
Dew Point 4 °F    
Average Humidity 64    
Maximum Humidity 76    
Minimum Humidity 52    
Precipitation  
Precipitation 0.00 in 0.06 in 1.22 in (1898)
Month to date precipitation 1.73 1.13  
Year to date precipitation 4.90 2.89  
Snow  
Snow 0.00 in 0.30 in 14.40 in (1898)
Month to date snowfall 11.0 7.1  
Since 1 July snowfall 22.4 35.1  
Snow Depth T in    
Sea Level Pressure  
Sea Level Pressure 30.33 in    
Wind  
Wind Speed 11 mph (NW)    
Max Wind Speed 15 mph    
Max Gust Speed 23 mph    
Visibility 10 miles    
Events      
T = Trace of Precipitation, MM = Missing Value Source: NWS Daily Summary

Daily Weather History Graph

Daily Weather History Graph

Search for Another Location

Airport:

Trip Planner

Search our weather history database for the weather conditions in past years. The results will help you decide how hot, cold, wet, or windy it might be!

Date:

Astronomy

Feb. 20, 2013 Rise Set
Actual Time 6:41 AM CST 5:29 PM CST
Civil Twilight 6:12 AM CST 5:58 PM CST
Nautical Twilight 5:39 AM CST 6:31 PM CST
Astronomical Twilight 5:06 AM CST 7:04 PM CST
Moon 12:46 PM CST (2/20) 3:05 AM CST (2/20)
Length of Visible Light 11h 46m
Length of Day
10h 48m
Waxing Gibbous, 76% of the Moon is Illuminated
Feb 20
Waxing Gibbous
Feb 25
Full
Mar 4
Last Quarter
Mar 11
New
Mar 19
First Quarter

Hourly Weather History & Observations

Time (CST) Temp. Windchill Dew Point Humidity Pressure Visibility Wind Dir Wind Speed Gust Speed Precip Events Conditions
12:52 AM 9.0 °F -6.6 °F -2.0 °F 61% 30.19 in 10.0 mi WNW 12.7 mph - N/A   Clear
1:52 AM 9.0 °F -7.9 °F -2.0 °F 61% 30.22 in 10.0 mi WNW 15.0 mph 21.9 mph N/A   Clear
2:52 AM 8.1 °F -8.4 °F -2.0 °F 64% 30.24 in 10.0 mi WNW 13.8 mph 21.9 mph N/A   Clear
3:52 AM 8.1 °F -8.4 °F -2.0 °F 64% 30.25 in 10.0 mi WNW 13.8 mph 21.9 mph N/A   Clear
4:52 AM 8.1 °F -8.4 °F -2.0 °F 64% 30.27 in 10.0 mi WNW 13.8 mph 23.0 mph N/A   Clear
5:52 AM 7.0 °F -10.4 °F -2.0 °F 67% 30.29 in 10.0 mi WNW 15.0 mph 23.0 mph N/A   Clear
6:52 AM 7.0 °F -8.3 °F -0.9 °F 70% 30.31 in 10.0 mi NW 11.5 mph - N/A   Clear
7:52 AM 9.0 °F -6.6 °F -0.0 °F 67% 30.31 in 10.0 mi NW 12.7 mph 19.6 mph N/A   Clear
8:52 AM 12.0 °F -2.0 °F 1.9 °F 64% 30.31 in 10.0 mi WNW 11.5 mph - N/A   Clear
9:52 AM 15.1 °F -0.1 °F 3.9 °F 61% 30.33 in 10.0 mi NNW 15.0 mph 21.9 mph N/A   Partly Cloudy
10:52 AM 17.6 °F 5.7 °F 5.0 °F 58% 30.29 in 10.0 mi NW 10.4 mph - N/A   Scattered Clouds
11:52 AM 18.0 °F 6.9 °F 6.1 °F 60% 30.36 in 10.0 mi NNW 9.2 mph - N/A   Scattered Clouds
12:52 PM 19.9 °F 9.3 °F 7.0 °F 57% 30.33 in 10.0 mi NW 9.2 mph 17.3 mph N/A   Scattered Clouds
1:52 PM 21.0 °F 10.6 °F 7.0 °F 55% 30.37 in 10.0 mi WNW 9.2 mph - N/A   Scattered Clouds
2:52 PM 21.0 °F 9.9 °F 7.0 °F 55% 30.39 in 10.0 mi West 10.4 mph - N/A   Mostly Cloudy
3:52 PM 21.0 °F 7.6 °F 7.0 °F 55% 30.37 in 10.0 mi NNW 15.0 mph - N/A   Mostly Cloudy
4:52 PM 21.0 °F 12.4 °F 7.0 °F 55% 30.38 in 10.0 mi NNW 6.9 mph - N/A   Mostly Cloudy
5:52 PM 19.9 °F 11.1 °F 8.1 °F 60% 30.38 in 10.0 mi WNW 6.9 mph - N/A   Mostly Cloudy
6:52 PM 19.9 °F 10.1 °F 8.1 °F 60% 30.38 in 10.0 mi NW 8.1 mph - N/A   Mostly Cloudy
7:52 PM 19.0 °F 12.3 °F 8.1 °F 62% 30.38 in 10.0 mi West 4.6 mph - N/A   Scattered Clouds
8:52 PM 19.4 °F 11.5 °F 8.6 °F 63% 30.32 in 10.0 mi WNW 5.8 mph - N/A   Scattered Clouds
9:52 PM 18.0 °F 11.1 °F 9.0 °F 68% 30.38 in 10.0 mi NW 4.6 mph - N/A   Scattered Clouds
10:52 PM 19.0 °F 10.0 °F 9.0 °F 65% 30.38 in 10.0 mi NW 6.9 mph - N/A   Mostly Cloudy
11:34 PM 19.4 °F 10.4 °F 10.4 °F 68% 30.34 in 10.0 mi NW 6.9 mph - N/A   Overcast
11:52 PM 19.9 °F 10.1 °F 10.0 °F 65% 30.38 in 10.0 mi NW 8.1 mph - N/A   Overcast